Location: Rottenacker
(48.2350°N, 9.6886°E)
Time: 10:29:33
(UTC+02:00)

ISS - Pass Details

Date: 07 January 2018
Orbit: 402 x 409 km, 51.6° (Epoch: 21 August)

Event Time Altitude Azimuth Distance (km) Brightness Sun altitude
Exits shadow 05:59:53 43° 22° (NNE) 608 -3.0 -21.0°
Drops below altitude 10° 06:02:50 10° 77° (ENE) 1,516 0.0 -20.5°
Sets 06:05:00 0° 84° (E) 2,384 1.4 -20.1°
